• In Uzbekistan
  • List of Countries
  • For 7 days
  • Water Temperature
  • Satellite Maps
  • Weather Map
  • Weather Widgets
  • user-avatar
    Login

    Hourly Weather Red Deer

    Today, 18 November, Saturday

    Time Temperature Precipitation Wind Pressure Humidity
    00:00 -14°C° 0 mm 3 mps 681 mmHg 88%
    01:00 -14°C° 0 mm 3 mps 681 mmHg 87%
    02:00 -13°C° 0 mm 3 mps 681 mmHg 85%
    03:00 -12°C° 0 mm 3 mps 681 mmHg 83%
    04:00 -12°C° 0 mm 3 mps 681 mmHg 81%
    05:00 -10°C° 0 mm 3 mps 681 mmHg 79%
    06:00 -10°C° 0 mm 3 mps 681 mmHg 78%
    07:00 -9°C° 0 mm 3 mps 681 mmHg 77%
    08:00 -8°C° 0 mm 3 mps 681 mmHg 77%
    09:00 -6°C° 0 mm 3 mps 681 mmHg 77%
    10:00 -5°C° 0 mm 3 mps 680 mmHg 77%
    11:00 -4°C° 0 mm 3 mps 680 mmHg 77%
    12:00 -2°C° 0 mm 3 mps 680 mmHg 76%
    13:00 -1°C° 0 mm 3 mps 679 mmHg 76%
    14:00 -1°C° 0 mm 3 mps 679 mmHg 75%
    15:00 -1°C° 0 mm 3 mps 679 mmHg 74%
    16:00 -1°C° 0 mm 3 mps 679 mmHg 74%
    17:00 -1°C° 0 mm 3 mps 679 mmHg 74%
    18:00 -1°C° 0 mm 3 mps 678 mmHg 74%
    19:00 -2°C° 0 mm 4 mps 678 mmHg 74%
    20:00 -3°C° 0 mm 4 mps 678 mmHg 75%
    21:00 -3°C° 0 mm 4 mps 678 mmHg 75%
    22:00 -4°C° 0 mm 4 mps 678 mmHg 76%
    23:00 -4°C° 0 mm 4 mps 677 mmHg 78%

    Tomorrow, 19 November, Sunday

    Time Temperature Precipitation Wind Pressure Humidity
    00:00 -4°C° 0 mm 3 mps 677 mmHg 79%
    01:00 -5°C° 0 mm 3 mps 677 mmHg 81%
    02:00 -4°C° 0 mm 3 mps 676 mmHg 81%
    03:00 -4°C° 0 mm 3 mps 675 mmHg 80%
    04:00 -2°C° 0 mm 3 mps 675 mmHg 80%
    05:00 -2°C° 0 mm 3 mps 674 mmHg 79%
    06:00 -3°C° 0 mm 4 mps 673 mmHg 78%
    07:00 -3°C° 0 mm 4 mps 673 mmHg 77%
    08:00 -2°C° 0 mm 5 mps 672 mmHg 76%
    09:00 -2°C° 0 mm 6 mps 671 mmHg 74%
    10:00 -1°C° 0 mm 6 mps 670 mmHg 72%
    11:00 -1°C° 0 mm 6 mps 668 mmHg 73%
    12:00 -1°C° 0 mm 6 mps 667 mmHg 74%
    13:00 0°C° 0 mm 7 mps 666 mmHg 75%
    14:00 -1°C° 0 mm 6 mps 665 mmHg 74%
    15:00 -1°C° 0 mm 6 mps 665 mmHg 74%
    16:00 0°C° 0 mm 5 mps 664 mmHg 73%
    17:00 0°C° 0 mm 5 mps 664 mmHg 72%
    18:00 0°C° 0 mm 5 mps 664 mmHg 72%
    19:00 0°C° 0 mm 5 mps 664 mmHg 71%
    20:00 -1°C° 0.2 mm 5 mps 664 mmHg 75%
    21:00 -1°C° 0.2 mm 4 mps 665 mmHg 78%
    22:00 -1°C° 0.2 mm 4 mps 665 mmHg 82%
    23:00 -3°C° 0.1 mm 4 mps 666 mmHg 84%

    Day after tomorrow, 20 November, Monday

    Time Temperature Precipitation Wind Pressure Humidity
    00:00 -4°C° 0.1 mm 4 mps 667 mmHg 86%
    01:00 -5°C° 0.1 mm 4 mps 668 mmHg 87%
    02:00 -8°C° 0.1 mm 4 mps 669 mmHg 87%
    03:00 -11°C° 0.1 mm 5 mps 671 mmHg 87%
    04:00 -13°C° 0.1 mm 5 mps 672 mmHg 86%
    05:00 -14°C° 0 mm 5 mps 673 mmHg 87%
    06:00 -15°C° 0 mm 5 mps 674 mmHg 88%
    07:00 -17°C° 0 mm 4 mps 675 mmHg 88%
    08:00 -18°C° 0 mm 5 mps 676 mmHg 87%
    09:00 -17°C° 0 mm 5 mps 677 mmHg 85%
    10:00 -17°C° 0 mm 5 mps 678 mmHg 84%
    11:00 -17°C° 0 mm 5 mps 679 mmHg 83%
    12:00 -15°C° 0 mm 5 mps 680 mmHg 83%
    13:00 -15°C° 0 mm 4 mps 681 mmHg 82%
    14:00 -16°C° 0 mm 4 mps 682 mmHg 84%
    15:00 -16°C° 0 mm 3 mps 683 mmHg 87%
    16:00 -16°C° 0 mm 2 mps 683 mmHg 89%
    17:00 -16°C° 0 mm 2 mps 684 mmHg 89%
    18:00 -16°C° 0 mm 2 mps 685 mmHg 89%
    19:00 -15°C° 0 mm 1 mps 685 mmHg 89%
    20:00 -15°C° 0 mm 1 mps 686 mmHg 88%
    21:00 -15°C° 0 mm 1 mps 686 mmHg 87%
    22:00 -15°C° 0 mm 1 mps 686 mmHg 87%
    23:00 -15°C° 0 mm 1 mps 686 mmHg 88%

    21 November, Tuesday

    Time Temperature Precipitation Wind Pressure Humidity
    00:00 -17°C° 0 mm 2 mps 686 mmHg 88%
    01:00 -17°C° 0 mm 2 mps 686 mmHg 89%
    02:00 -17°C° 0 mm 2 mps 686 mmHg 89%
    03:00 -17°C° 0 mm 2 mps 687 mmHg 90%
    04:00 -17°C° 0 mm 2 mps 687 mmHg 90%
    05:00 -18°C° 0 mm 3 mps 687 mmHg 90%
    06:00 -18°C° 0 mm 3 mps 687 mmHg 90%
    07:00 -18°C° 0 mm 3 mps 687 mmHg 90%
    08:00 -17°C° 0 mm 3 mps 687 mmHg 89%
    09:00 -17°C° 0 mm 4 mps 687 mmHg 88%
    10:00 -16°C° 0 mm 4 mps 687 mmHg 88%
    11:00 -17°C° 0 mm 5 mps 686 mmHg 88%
    12:00 -15°C° 0 mm 5 mps 685 mmHg 89%
    13:00 -14°C° 0 mm 5 mps 684 mmHg 90%
    14:00 -14°C° 0 mm 5 mps 683 mmHg 90%
    15:00 -14°C° 0 mm 5 mps 683 mmHg 91%
    16:00 -15°C° 0 mm 6 mps 682 mmHg 91%
    17:00 -15°C° 0 mm 6 mps 681 mmHg 91%
    18:00 -14°C° 0 mm 6 mps 680 mmHg 90%
    19:00 -14°C° 0 mm 6 mps 679 mmHg 90%
    20:00 -13°C° 0 mm 5 mps 678 mmHg 91%
    21:00 -12°C° 0 mm 4 mps 677 mmHg 92%
    22:00 -10°C° 0 mm 3 mps 676 mmHg 92%
    23:00 -9°C° 0 mm 2 mps 676 mmHg 93%

    22 November, Wednesday

    Time Temperature Precipitation Wind Pressure Humidity
    00:00 -10°C° 0 mm 2 mps 675 mmHg 94%
    01:00 -9°C° 0 mm 1 mps 675 mmHg 95%
    02:00 -9°C° 0 mm 1 mps 675 mmHg 94%
    03:00 -9°C° 0 mm 2 mps 676 mmHg 93%
    04:00 -9°C° 0 mm 2 mps 676 mmHg 92%
    05:00 -9°C° 0 mm 2 mps 676 mmHg 92%
    06:00 -9°C° 0 mm 1 mps 677 mmHg 92%
    07:00 -9°C° 0 mm 1 mps 677 mmHg 92%
    08:00 -7°C° 0 mm 1 mps 678 mmHg 91%
    09:00 -6°C° 0 mm 1 mps 678 mmHg 90%
    10:00 -6°C° 0 mm 2 mps 679 mmHg 89%
    11:00 -4°C° 0 mm 2 mps 679 mmHg 90%
    12:00 -3°C° 0 mm 2 mps 678 mmHg 90%
    13:00 -2°C° 0 mm 3 mps 678 mmHg 90%
    14:00 -1°C° 0 mm 3 mps 678 mmHg 89%
    15:00 -1°C° 0 mm 3 mps 678 mmHg 88%
    16:00 0°C° 0 mm 3 mps 678 mmHg 87%
    17:00 0°C° 0 mm 4 mps 677 mmHg 85%
    18:00 +1°C° 0 mm 5 mps 677 mmHg 82%
    19:00 +2°C° 0 mm 5 mps 676 mmHg 80%
    20:00 +2°C° 0 mm 5 mps 676 mmHg 80%
    21:00 +2°C° 0 mm 5 mps 675 mmHg 81%
    22:00 +2°C° 0 mm 5 mps 675 mmHg 81%
    23:00 +2°C° 0 mm 5 mps 675 mmHg 81%

    23 November, Thursday

    Time Temperature Precipitation Wind Pressure Humidity
    00:00 +2°C° 0 mm 5 mps 675 mmHg 80%
    01:00 +3°C° 0 mm 4 mps 675 mmHg 80%
    02:00 +3°C° 0 mm 4 mps 675 mmHg 80%
    03:00 +3°C° 0 mm 4 mps 675 mmHg 79%
    04:00 +3°C° 0 mm 4 mps 675 mmHg 79%
    05:00 +2°C° 0 mm 3 mps 675 mmHg 82%
    06:00 +3°C° 0 mm 2 mps 675 mmHg 85%
    07:00 +3°C° 0 mm 1 mps 675 mmHg 89%
    08:00 +3°C° 0.2 mm 1 mps 675 mmHg 91%
    09:00 +3°C° 0.2 mm 1 mps 675 mmHg 93%
    10:00 +2°C° 0.2 mm 2 mps 675 mmHg 95%
    11:00 +2°C° 0 mm 2 mps 675 mmHg 96%
    12:00 +2°C° 0 mm 2 mps 675 mmHg 97%
    13:00 +3°C° 0 mm 1 mps 675 mmHg 97%
    14:00 +1°C° 0 mm 2 mps 675 mmHg 96%
    15:00 +1°C° 0 mm 2 mps 675 mmHg 96%
    16:00 -1°C° 0 mm 2 mps 674 mmHg 95%
    17:00 -1°C° 0 mm 3 mps 674 mmHg 94%
    18:00 0°C° 0 mm 3 mps 674 mmHg 93%
    19:00 -1°C° 0 mm 4 mps 673 mmHg 92%
    20:00 +1°C° 0.1 mm 3 mps 673 mmHg 91%
    21:00 +2°C° 0.1 mm 3 mps 672 mmHg 90%
    22:00 +2°C° 0.1 mm 3 mps 672 mmHg 89%
    23:00 +3°C° 0.3 mm 3 mps 672 mmHg 89%
    Show more